This demonstration page uses our WeatherBlox Daily Observations layout. Learn more.

Left ArrowRight Arrow

Hourly Observations for August 18, 2022

Temp ( °F °C ) Dew Point ( °F °C ) Humidity (%) Winds ( mph kmh ) Pressure ( in mb ) Visibility ( mi km ) Precip ( " mm )
12:56 am 00:56 Clear 64 17.8 59 15 84 84 SW 5 7 30.11 1020 10 16 0.00 0.00
1:56 am 01:56 Clear 61 16.1 58 14.4 90 90 S 6 9 30.08 1019 10 16 0.00 0.00
2:56 am 02:56 Clear 62 16.7 58 14.4 86 86 SSW 7 11 30.08 1019 10 16 0.00 0.00
3:56 am 03:56 Clear 59 15 57 13.9 93 93 S 6 9 30.08 1019 10 16 0.00 0.00
4:56 am 04:56 Clear 61 16.1 57 13.9 87 87 SW 6 9 30.07 1018 10 16 0.00 0.00
5:56 am 05:56 Clear 61 16.1 57 13.9 87 87 SW 6 9 30.07 1018 10 16 0.00 0.00
6:56 am 06:56 Sunny 61 16.1 57 13.9 87 87 WSW 5 7 30.08 1019 10 16 0.00 0.00
7:56 am 07:56 Sunny 64 17.8 58 14.4 80 80 SW 7 11 30.06 1018 10 16 0.00 0.00
8:56 am 08:56 Sunny 69 20.6 60 15.6 73 73 SW 10 17 30.05 1018 10 16 0.00 0.00
9:56 am 09:56 Sunny 73 22.8 61 16.1 66 66 SW 10 17 30.04 1017 10 16 0.00 0.00
10:56 am 10:56 Sunny 77 25 60 15.6 56 56 SW 14 22 30.03 1017 10 16 0.00 0.00
11:56 am 11:56 Sunny 81 27.2 61 16.1 51 51 WSW 14 22 30.02 1017 10 16 0.00 0.00
12:56 pm 12:56 Sunny 82 27.8 61 16.1 49 49 SW 10 17 29.99 1016 10 16 0.00 0.00
1:56 pm 13:56 Sunny 84 28.9 62 16.7 48 48 SW 10 17 29.98 1015 10 16 0.00 0.00
2:56 pm 14:56 Sunny 86 30 64 17.8 48 48 SW 13 20 29.96 1015 10 16 0.00 0.00
3:56 pm 15:56 Sunny 87 30.6 63 17.2 45 45 SW 14 22 29.93 1014 10 16 0.00 0.00
4:56 pm 16:56 Sunny 88 31.1 61 16.1 41 41 SW 14 22 29.89 1012 10 16 0.00 0.00
5:40 pm 17:40 Partly Cloudy with Nearby Thunderstorms 88 31 63 17 43 43 S 15 24 29.78 1008 10 16 0.00 0.00
5:56 pm 17:56 Mostly Cloudy with Thunderstorms 85 29.4 63 17.2 48 48 S 16 26 29.87 1012 10 16 0.01 0.13
6:15 pm 18:15 Mostly Cloudy with Thunderstorms 73 23 61 16 65 65 NNE 18 30 29.90 1012 10 16 0.01 0.13
6:28 pm 18:28 Mostly Cloudy with Nearby Thunderstorms 75 24 61 16 61 61 E 20 31 29.85 1011 10 16 0.01 0.13
6:56 pm 18:56 Sunny with Light Rain 77 25 61 16.1 58 58 SE 12 19 29.89 1012 10 16 0.01 0.13
7:56 pm 19:56 Mostly Cloudy 77 25 62 16.7 60 60 S 7 11 29.88 1012 10 16 0.01 0.13
8:56 pm 20:56 Mostly Cloudy 75 23.9 61 16.1 62 62 SE 3 6 29.88 1012 10 16 0.00 0.00
9:56 pm 21:56 Clear 73 22.8 62 16.7 68 68 NNW 6 9 29.90 1013 10 16 0.00 0.00
10:56 pm 22:56 Clear 70 21.1 62 16.7 76 76 NNW 8 13 29.92 1013 10 16 0.00 0.00
11:56 pm 23:56 Partly Cloudy 68 20 62 16.7 81 81 Calm 29.92 1013 10 16 0.00 0.00

Powered by AerisWeather